Location: Santo Domingo de Pirón
(41.0410°N, 3.9893°W)
Time: 07:15:21
(UTC+00:00)

Daily predictions for brighter satellites

Satellite Brightness Start Highest point End
(mag) Time Altitude Azimuth Time Altitude Azimuth Time Altitude Azimuth
Meteor 2-5 Rocket 4.2 20:09:48 10° SSW 20:15:37 72° W 20:21:21 10° N
Helios 1B rocket 3.4 20:12:47 10° SE 20:15:52 25° ENE 20:18:56 10° NNE
Meteor 2-17 Rocket 4.5 20:11:21 10° S 20:17:24 79° E 20:23:32 10° N
Cosmos 158 Rocket 4.4 20:15:20 10° NNW 20:20:07 59° WSW 20:24:53 10° S
Helios 1A 4.2 20:17:16 10° NE 20:20:15 21° E 20:23:14 10° SE
Cosmos 220 Rocket 3.9 20:16:24 10° NNW 20:20:39 79° ENE 20:24:53 10° SSE
Cosmos 1570 Rocket 4.1 20:18:27 10° NNW 20:23:43 67° ENE 20:28:55 10° SSE
Terra 2.7 20:19:33 10° SE 20:23:44 33° ENE 20:27:56 10° N
Cosmos 2034 Rocket 4.2 20:23:21 10° N 20:29:44 79° W 20:36:05 10° S
Cosmos 1634 Rocket 4.2 20:24:00 10° N 20:30:04 56° E 20:36:05 10° SSE
Cosmos 1606 2.1 20:27:34 10° N 20:30:38 84° W 20:33:41 10° S
Cosmos 1300 Rocket 4.2 20:29:24 10° NNW 20:33:41 58° W 20:37:54 10° S
Cosmos 1486 Rocket 4.0 20:28:36 10° S 20:33:48 71° ESE 20:39:06 10° NNE
USA 186 2.3 20:32:21 10° S 20:34:58 47° W 20:37:38 10° NNW
SPOT 5 3.2 20:30:55 10° S 20:36:09 82° WSW 20:41:30 10° NNW
Resurs 01 Rocket 4.2 20:38:31 10° SW 20:41:44 20° W 20:44:58 10° NW
TRACE 4.2 20:40:34 10° N 20:42:11 37° WNW 20:43:46 10° SSW
ERS-1 Rocket 3.1 20:37:57 10° SSE 20:42:51 60° ENE 20:47:46 10° N
ADEOS 4.5 20:38:55 10° S 20:43:55 49° W 20:48:58 10° NNW
Cosmos 2297 3.7 20:40:31 10° S 20:46:04 63° ESE 20:51:40 10° NNE
Cosmos 2279 Rocket 4.3 20:40:47 10° N 20:46:52 52° ENE 20:52:36 12° SSE
MOS 1-B 4.3 20:41:14 10° SSE 20:46:59 78° ENE 20:52:46 10° NNW
Tsikada Rocket 4.3 20:41:43 10° SSW 20:48:04 74° W 20:54:31 10° N
Okean-O 2.7 20:46:07 12° SSE 20:50:07 58° ENE 20:54:26 10° N
Cosmos 1656 Rocket 4.1 20:46:41 10° SSW 20:52:13 68° WNW 20:57:42 10° NNE
Cosmos 1378 Rocket 3.6 20:48:20 10° S 20:52:32 58° E 20:56:45 10° NNE
COSMOS 2406 3.6 20:50:03 10° NNW 20:55:44 62° WSW 21:01:20 10° S
Okean O Rocket 1.6 20:52:26 10° SSE 20:56:48 87° W 21:01:12 10° NNW
Cosmos 1025 Rocket 4.0 20:54:32 16° SE 20:57:09 29° E 21:00:56 10° NNE
CZ-4B R/B 3.9 20:54:58 10° S 21:00:10 52° W 21:05:31 10° NNW
CZ-4 R/B 4.0 21:04:01 10° SW 21:06:07 15° W 21:08:14 10° WNW
In-Cosmos 22 Rocket 4.2 21:03:31 10° S 21:09:19 79° E 21:15:06 10° NNE
Cosmos 2082 Rocket 4.0 21:06:36 10° NW 21:11:17 27° WSW 21:15:56 10° SSW
Cosmos 2208 Rocket 4.5 21:09:23 10° NNW 21:14:34 59° WSW 21:19:13 13° S
Cosmos 1503 Rocket 4.2 21:10:53 10° SSW 21:16:02 75° WNW 21:21:13 10° NNE
Cosmos 2369 Rocket 2.5 21:15:37 10° SSW 21:21:17 71° WNW 21:26:59 10° NNE
Cosmos 1354 Rocket 4.0 21:20:19 10° SSW 21:25:32 87° WNW 21:30:48 10° NNE
ASTEX 1 3.4 21:24:28 10° NNE 21:29:18 63° E 21:32:11 24° S
SAR-Lupe-2 3.9 21:29:36 35° SE 21:30:44 50° ENE 21:34:14 10° N
DELTA 2 R/B (1) 3.6 21:28:20 10° WSW 21:33:45 59° SSE 21:38:43 12° E
ISS -0.9 21:32:12 10° NNW 21:34:12 15° N 21:36:11 10° NE
Cosmos 1340 Rocket 4.1 21:31:04 10° NNW 21:34:34 34° W 21:37:29 13° SSW
Ariane Rocket 3.1 21:32:58 28° SE 21:35:31 59° ENE 21:40:29 10° N
Tiangong -1.9 21:35:13 10° WSW 21:38:13 50° S 21:38:13 50° S
COBE Rocket 4.2 21:34:53 10° NNE 21:39:17 42° E 21:40:36 33° SE
Cosmos 1869 3.7 21:36:40 10° NNW 21:40:08 50° W 21:41:51 25° SSW
Okean 2 Rocket 3.0 21:36:25 10° N 21:40:48 80° W 21:42:59 29° S
CZ-4C R/B 1.5 21:39:10 10° SSW 21:43:13 88° SE 21:48:20 10° NE
Cosmos 2151 Rocket 4.2 21:43:12 10° NNW 21:47:35 53° W 21:50:15 22° SSW
Cosmos 44 3.1 21:44:01 10° SW 21:48:17 76° WNW 21:52:40 10° NNE
Helios 1B rocket 4.4 21:46:43 10° SW 21:49:27 20° W 21:52:12 10° NW
Cosmos 1975 Rocket 3.6 21:53:28 36° ESE 21:53:48 36° E 21:57:46 10° NNE
Okean 1 Rocket 3.1 21:50:25 10° NNW 21:54:46 73° W 21:56:28 36° S
Nadezhda 4 Rocket 4.0 21:51:05 17° S 21:56:08 83° W 22:02:30 10° N
Cosmos 2221 Rocket 4.3 21:52:39 15° SSW 21:56:10 53° W 22:00:37 10° N
Terra 3.6 21:57:31 11° SSW 22:01:15 25° W 22:05:10 10° NW
Cosmos 2228 4.3 21:59:30 10° NNE 22:02:59 24° ENE 22:03:10 24° E
Cosmos 2285 Rocket 4.0 21:59:35 15° SSW 22:04:58 90° ESE 22:11:26 10° NNE
Cosmos 1867 3.5 22:02:46 27° SSW 22:05:43 65° ESE 22:11:08 10° NE
Cosmos 1455 Rocket 3.0 22:02:02 10° N 22:06:20 66° E 22:07:04 55° SE
SPOT 3 Rocket 3.8 22:04:07 31° S 22:06:32 64° WSW 22:11:43 10° NNW
Cosmos 2195 Rocket 4.4 22:03:24 30° S 22:06:38 79° E 22:12:53 10° N
BREEZE M DEB (TANK) 2.8 22:02:59 10° WSW 22:08:35 70° NNW 22:10:09 23° NE
Cosmos 2026 Rocket 3.8 22:12:17 36° S 22:14:53 76° E 22:20:57 10° N
NOSS 3-4 (A) 4.3 22:09:36 10° NW 22:16:33 55° WSW 22:20:31 30° S
NOSS 3-4 (C) 4.3 22:09:39 10° NW 22:16:36 56° WSW 22:20:31 30° S
Cosmos 1898 Rocket 3.4 22:16:19 46° S 22:17:48 71° ESE 22:23:01 10° NNE
PSLV R/B 4.0 22:22:10 47° WNW 22:22:10 47° WNW 22:24:54 10° NNW
Cosmos 1818 4.0 22:16:42 10° NW 22:21:58 52° WSW 22:23:29 40° SSW
Cosmos 1812 3.5 22:23:37 10° NNW 22:26:19 35° W 22:26:19 35° W
USA 81 4.0 22:25:23 53° SSE 22:26:34 73° E 22:31:49 10° N
Cosmos 1538 Rocket 4.0 22:21:20 10° NNW 22:26:44 89° WSW 22:28:01 54° SSE
ARIANE 5 R/B 4.0 22:30:39 25° ENE 22:30:56 25° ENE 22:34:35 10° NNE
Cosmos 1553 Rocket 4.4 22:28:17 10° N 22:34:22 49° ENE 22:35:55 41° ESE
BlueWalker 3 4.3 22:32:33 10° NNW 22:35:12 19° NNE 22:36:57 14° NE
Cosmos 1092 Rocket 4.0 22:35:06 36° SSW 22:37:51 79° W 22:44:13 10° N
Cosmos 1656 3.6 22:47:10 62° SE 22:47:43 66° ESE 22:53:13 10° NNE
CZ-4C R/B 4.4 22:44:20 10° NNE 22:46:38 33° NE 22:46:38 33° NE
DELTA 2 DEB (DPAF) 4.0 22:44:04 10° NNE 22:47:30 68° N 22:47:30 68° N
RESURS DK-1 3.5 22:49:10 10° N 22:52:29 32° NE 22:52:29 32° NE
Cosmos 1544 Rocket 3.7 22:52:29 10° N 22:56:31 67° NE 22:56:31 67° NE
Cosmos 2058 4.4 23:01:15 27° NE 23:01:15 27° NE 23:03:30 10° NNE
Cosmos 1400 Rocket 3.7 23:00:18 10° N 23:03:02 41° NNE 23:03:02 41° NNE
Meteor 2-20 Rocket 4.3 22:58:21 10° N 23:04:19 66° E 23:05:05 60° ESE
DNEPR-1 R/B 3.9 23:05:10 10° NW 23:08:46 58° WNW 23:08:46 58° WNW
Cosmos 1782 4.4 23:07:21 10° NNE 23:09:26 25° NE 23:09:26 25° NE
ISS -1.7 23:08:27 10° NW 23:10:32 29° NNW 23:10:32 29° NNW
Cosmos 2112 Rocket 4.2 23:06:47 10° NNW 23:12:02 61° ENE 23:12:22 59° E
Cosmos 1937 Rocket 4.2 23:14:20 36° WSW 23:15:51 47° WNW 23:20:48 10° N
Cosmos 2098 Rocket 4.3 23:16:04 10° NNW 23:18:12 29° WNW 23:18:12 29° WNW
DELTA 2 R/B (1) 3.5 23:14:26 10° W 23:19:25 69° WSW 23:19:25 69° WSW
Cosmos 2297 Rocket 2.5 23:14:57 10° NNW 23:20:31 55° ENE 23:21:13 52° E
ALOS 2 3.4 23:22:00 44° NE 23:22:00 44° NE 23:25:42 10° N
Cosmos 1680 Rocket 3.4 23:17:21 10° NNW 23:22:40 90° ENE 23:22:44 88° SSE
Cosmos 1980 Rocket 3.9 23:28:23 20° E 23:28:23 20° E 23:31:16 10° NE
Lacrosse 5 rocket 4.1 23:26:21 10° N 23:28:25 14° NNE 23:30:30 10° NE
Cosmos 1697 Rocket 3.0 23:32:03 51° E 23:32:03 51° E 23:37:01 10° NNE
MetOp-A 4.4 23:33:09 41° NNW 23:33:09 41° NNW 23:35:42 10° NNW
Cosmos 2360 4.2 23:33:06 68° SW 23:33:47 78° WNW 23:39:31 10° NNE
Cosmos 923 Rocket 4.4 23:28:54 10° NNW 23:33:47 51° W 23:33:47 51° W
Meteor 2-3 Rocket 4.3 23:46:45 44° E 23:46:45 44° E 23:52:07 10° NNE
GEOS 3 Rocket 3.5 23:46:34 10° NE 23:51:46 86° E 23:51:46 86° E
Cosmos 1125 Rocket 4.4 23:52:53 38° ENE 23:52:53 38° ENE 23:56:55 10° NNE
Cosmos 2227 Rocket 2.8 23:47:48 10° NNW 23:53:17 46° ENE 23:54:06 43° E
